Palm Springs, CA

5:18 PM PST on November 17, 2017 (GMT -0800)
Palm Springs International

Weather History for KPSP - February, 2013

Change the Weather History Date:

Sunday, February 3, 2013

  Actual Average Record
Temperature  
Mean Temperature 70 °F 59 °F  
Max Temperature 76 °F 71 °F 90 °F (1963)
Min Temperature 63 °F 47 °F 28 °F (1956)
Degree Days  
Heating Degree Days 0 7  
Month to date heating degree days 3 21  
Since 1 July heating degree days 579 648  
Cooling Degree Days 5 1  
Month to date cooling degree days 6 2  
Year to date cooling degree days 7 10  
Growing Degree Days 18 (Base 50)    
Moisture  
Dew Point 43 °F    
Average Humidity 39    
Maximum Humidity 48    
Minimum Humidity 29    
Precipitation  
Precipitation T in 0.02 in 0.52 in (1998)
Month to date precipitation T 0.05  
Year to date precipitation 0.61 1.05  
Since 1 July precipitation 1.83  
Snow  
Snow 0.00 in - - ()
Month to date snowfall 0.0  
Year to date snowfall 0.0  
Snow Depth 0.00 in    
Sea Level Pressure  
Sea Level Pressure 30.04 in    
Wind  
Wind Speed 5 mph (WNW)    
Max Wind Speed 22 mph    
Max Gust Speed 25 mph    
Visibility 10 miles    
Events Rain    
T = Trace of Precipitation, MM = Missing Value Source: NWS Daily Summary

Daily Weather History Graph

Daily Weather History Graph

Search for Another Location

Airport or City:

Trip Planner

Search our weather history database for the weather conditions in past years. The results will help you decide how hot, cold, wet, or windy it might be!

Date:

Astronomy

Feb. 03, 2013 Rise Set
Actual Time 6:41 AM PST 5:19 PM PST
Civil Twilight 6:14 AM PST 5:45 PM PST
Nautical Twilight 5:45 AM PST 6:15 PM PST
Astronomical Twilight 5:15 AM PST 6:44 PM PST
Moon 12:12 AM PST (2/3) 11:01 AM PST (2/3)
Length of Visible Light 11h 30m
Length of Day
10h 38m
Waning Gibbous, 47% of the Moon is Illuminated
Feb 3
Waning Gibbous
Feb 9
New
Feb 17
First Quarter
Feb 25
Full
Mar 4
Last Quarter

Hourly Weather History & Observations

Time (PST) Temp. Dew Point Humidity Pressure Visibility Wind Dir Wind Speed Gust Speed Precip Events Conditions
12:53 AM 64.9 °F 45.0 °F 48% 30.10 in 10.0 mi Calm Calm - N/A   Overcast
1:53 AM 64.9 °F 43.0 °F 45% 30.08 in 10.0 mi Calm Calm - 0.00 in   Overcast
2:53 AM 66.0 °F 39.9 °F 38% 30.08 in 10.0 mi NNW 8.1 mph - 0.00 in   Overcast
3:53 AM 66.9 °F 41.0 °F 39% 30.08 in 10.0 mi WNW 9.2 mph - 0.00 in   Overcast
4:53 AM 66.0 °F 44.1 °F 45% 30.09 in 10.0 mi NW 17.3 mph - 0.00 in Rain Light Rain
5:53 AM 64.0 °F 45.0 °F 50% 30.08 in 10.0 mi WNW 8.1 mph - 0.00 in   Mostly Cloudy
6:53 AM 64.9 °F 45.0 °F 48% 30.09 in 10.0 mi WSW 6.9 mph - N/A   Mostly Cloudy
7:53 AM 64.9 °F 45.0 °F 48% 30.09 in 10.0 mi Calm Calm - N/A   Scattered Clouds
8:53 AM 69.1 °F 44.1 °F 40% 30.09 in 10.0 mi NW 5.8 mph - N/A   Scattered Clouds
9:53 AM 70.0 °F 39.9 °F 33% 30.09 in 10.0 mi West 4.6 mph - N/A   Scattered Clouds
10:53 AM 72.0 °F 39.0 °F 30% 30.07 in 10.0 mi Variable 3.5 mph - N/A   Scattered Clouds
11:53 AM 73.0 °F 39.0 °F 29% 30.03 in 10.0 mi SW 6.9 mph - N/A   Scattered Clouds
12:53 PM 73.9 °F 39.9 °F 29% 30.00 in 10.0 mi NW 3.5 mph - N/A   Scattered Clouds
1:53 PM 73.9 °F 41.0 °F 30% 29.97 in 10.0 mi SW 8.1 mph - N/A   Scattered Clouds
2:53 PM 75.0 °F 41.0 °F 29% 29.97 in 10.0 mi SSW 4.6 mph - N/A   Clear
3:53 PM 73.9 °F 42.1 °F 32% 29.97 in 10.0 mi SSW 5.8 mph - N/A   Scattered Clouds
4:53 PM 73.0 °F 42.1 °F 33% 29.96 in 10.0 mi Calm Calm - N/A   Mostly Cloudy
5:53 PM 70.0 °F 45.0 °F 41% 29.97 in 10.0 mi Calm Calm - N/A   Clear
6:53 PM 69.1 °F 44.1 °F 40% 29.99 in 10.0 mi WNW 4.6 mph - N/A   Clear
7:53 PM 69.1 °F 42.1 °F 38% 30.01 in 10.0 mi NW 4.6 mph - N/A   Clear
8:53 PM 64.9 °F 43.0 °F 45% 30.02 in 10.0 mi NW 6.9 mph - N/A   Clear
9:53 PM 64.0 °F 43.0 °F 46% 30.02 in 10.0 mi WNW 3.5 mph - N/A   Clear
10:53 PM 62.1 °F 43.0 °F 50% 30.03 in 10.0 mi NW 9.2 mph - N/A   Clear
11:53 PM 60.1 °F 44.1 °F 55% 30.03 in 10.0 mi NNW 10.4 mph - N/A   Clear